Location: ??? ?????
(30.6482°N, 60.5850°E)
Time: 05:20:34
(UTC+00:00)

CENTAUR R/B - Pass Details

Date: 09 April 2020
Orbit: 761 x 1427 km, 63.5° (Epoch: 29 May)

Event Time Altitude Azimuth Distance (km) Brightness Sun altitude
Exits shadow 23:25:42 27° 318° (NW) 1,716 3.6 -27.2°
Drops below altitude 10° 23:30:46 10° 8° (N) 2,836 5.3 -26.2°
Sets 23:34:04 0° 20° (NNE) 3,915 6.3 -25.6°
